Home   Weather   Olpe   Past weeks

Flag for Germany Past Weather in Olpe, North Rhine-Westphalia, Germany — Yesterday and Last 2 Weeks

Now
54 °F

Clear.


Feels Like: 53 °F
Forecast: 42 / 60 °F
Wind: 3 mph from East

Location: Hessen

Current Time: Sep 24, 2017 at 9:20:46 pm

Latest Report: Sep 24, 2017 at 8:20 pm


Visibility: 10 mi

Pressure: 30.21 "Hg

Humidity: 88%

Dew Point: 50 °F

Location of OlpeLocation

Past Weather in Olpe — Graph

°F

Olpe Temperature Yesterday

Maximum temperature yesterday: 57 °F (at 3:20 pm)
Minimum temperature yesterday: 52 °F (at 8:20 am)
Average temperature yesterday: 54 °F

High & Low Weather Summary for the Past Weeks

 TemperatureHumidityPressure
High61 °F (Sep 22, 1:20 pm)100% (Sep 10, 7:20 am)30.24 "Hg (Sep 10, 7:20 am)
Low41 °F (Sep 16, 7:50 am)55% (Sep 22, 2:20 pm)29.47 "Hg (Sep 11, 7:50 am)
Average51 °F86%29.91 "Hg
* Reported Sep 9 8:20 pm — Sep 24 8:20 pm, Olpe. Weather by CustomWeather, © 2017

Note: Actual official high and low records may vary slightly from our data, if they occured in-between our weather recording intervals... More about our weather records

Advertising

Olpe Weather History for the Previous 24 Hours

Scroll right to see more
 ConditionsComfort  
Time TempWeatherWind HumidityBarometerVisibility
8:20 pm
Sun, Sep 24
54 °FClear.3 mph88%30.21 "Hg10 mi
7:50 pm54 °FClear.No wind88%30.21 "Hg10 mi
7:20 pm55 °FSunny.No wind82%30.21 "Hg10 mi
6:50 pm55 °FScattered clouds.2 mph88%30.21 "HgN/A
6:20 pm55 °FBroken clouds.2 mph88%30.21 "HgN/A
5:50 pm55 °FBroken clouds.2 mph88%30.21 "HgN/A
4:50 pm57 °FPartly sunny.3 mph77%30.21 "HgN/A
4:20 pm57 °FPartly sunny.5 mph77%30.21 "HgN/A
3:50 pm57 °FPartly sunny.3 mph77%30.21 "HgN/A
3:20 pm57 °FBroken clouds.6 mph77%30.21 "HgN/A
2:50 pm57 °FBroken clouds.5 mph72%30.21 "HgN/A
1:50 pm57 °FScattered clouds.5 mph88%30.21 "HgN/A
1:20 pm57 °FScattered clouds.5 mph77%30.21 "HgN/A
12:50 pm55 °FPassing clouds.5 mph88%30.21 "HgN/A
12:20 pm55 °FPassing clouds.3 mph88%30.21 "HgN/A
11:50 am54 °FPassing clouds.3 mph94%30.21 "HgN/A
11:20 am54 °FClear.5 mph94%30.21 "Hg5 mi
10:50 am54 °FFog.3 mph94%30.21 "Hg2 mi
10:20 am52 °FFog.3 mph100%30.21 "Hg2 mi
9:50 am52 °FFog.2 mph100%30.21 "Hg2 mi
9:20 am52 °FFog.3 mph100%30.18 "Hg1 mi
8:50 am52 °FFog.5 mph100%30.18 "Hg2 mi
8:20 am50 °FFog.2 mph100%30.18 "Hg1 mi
7:50 am50 °FFog.6 mph100%30.18 "Hg1 mi
Weather by CustomWeather, © 2017

See weather overviewHow to use our weather pages